Weather History for KFLG - February, 2015

Change the Weather History Date:

Tuesday, February 3, 2015

  Actual Average Record
Temperature  
Mean Temperature 43 °F 31 °F  
Max Temperature 60 °F 43 °F 64 °F (1953)
Min Temperature 25 °F 18 °F -22 °F (1922)
Degree Days  
Heating Degree Days 22 34  
Month to date heating degree days 72 102  
Since 1 July heating degree days 3421 4018  
Cooling Degree Days 0 0  
Month to date cooling degree days 0 0  
Year to date cooling degree days 0 0  
Moisture  
Dew Point 22 °F    
Average Humidity 50    
Maximum Humidity 81    
Minimum Humidity 18    
Precipitation  
Precipitation 0.00 in 0.07 in 1.35 in (1901)
Month to date precipitation 0.00 0.21  
Year to date precipitation 2.19 2.26  
Snow  
Snow 0.00 in 0.80 in 13.50 in (1901)
Month to date snowfall 0.0 2.4  
Since 1 July snowfall 29.7 54.7  
Snow Depth 0.00 in    
Sea Level Pressure  
Sea Level Pressure 30.11 in    
Wind  
Wind Speed 4 mph (West)    
Max Wind Speed 15 mph    
Max Gust Speed 24 mph    
Visibility 10 miles    
Events      
T = Trace of Precipitation, MM = Missing Value Source: NWS Daily Summary

Daily Weather History Graph

Daily Weather History Graph

Search for Another Location

Airport or City:

Trip Planner

Search our weather history database for the weather conditions in past years. The results will help you decide how hot, cold, wet, or windy it might be!

Date:

Astronomy

Feb. 03, 2015 Rise Set
Actual Time 7:24 AM MST 5:57 PM MST
Civil Twilight 6:57 AM MST 6:23 PM MST
Nautical Twilight 6:27 AM MST 6:53 PM MST
Astronomical Twilight 5:57 AM MST 7:23 PM MST
Moon 6:04 PM MST (2/3) 6:56 AM MST (2/3)
Length of Visible Light 11h 25m
Length of Day
10h 32m
Full, 100% of the Moon is Illuminated
Feb 3
Full
Feb 3
Full
Feb 11
Last Quarter
Feb 18
New
Feb 25
First Quarter

Hourly Weather History & Observations

Time (MST) Temp. Windchill Dew Point Humidity Pressure Visibility Wind Dir Wind Speed Gust Speed Precip Events Conditions
12:57 AM 30.0 °F 26.5 °F 21.9 °F 72% 30.07 in 10.0 mi SW 3.5 mph - N/A   Clear
1:57 AM 28.9 °F - 21.9 °F 75% 30.07 in 10.0 mi Calm Calm - N/A   Clear
2:57 AM 27.0 °F - 21.0 °F 78% 30.08 in 10.0 mi Calm Calm - N/A   Clear
3:57 AM 36.0 °F 33.3 °F 23.0 °F 59% 30.04 in 10.0 mi West 3.5 mph - N/A   Clear
4:57 AM 28.4 °F 23.3 °F 21.2 °F 74% 30.20 in 10.0 mi SW 4.6 mph - N/A   Clear
5:57 AM 27.0 °F - 21.9 °F 81% 30.12 in 10.0 mi Calm Calm - N/A   Clear
6:57 AM 27.0 °F - 21.9 °F 81% 30.16 in 10.0 mi Calm Calm - N/A   Clear
7:57 AM 28.0 °F - 23.0 °F 81% 30.20 in 10.0 mi Calm Calm - N/A   Clear
8:57 AM 41.0 °F - 30.9 °F 67% 30.16 in 10.0 mi Calm Calm - N/A   Clear
9:57 AM 51.1 °F - 25.0 °F 36% 30.14 in 10.0 mi Variable 5.8 mph - N/A   Clear
10:57 AM 54.0 °F - 24.1 °F 31% 30.12 in 10.0 mi North - - N/A   Clear
11:57 AM 55.9 °F - 23.0 °F 28% 30.11 in 10.0 mi Variable 6.9 mph - N/A   Clear
12:57 PM 59.0 °F - 17.1 °F 20% 30.07 in 10.0 mi Variable 5.8 mph - N/A   Clear
1:57 PM 59.0 °F - 15.1 °F 18% 30.05 in 10.0 mi NW 9.2 mph - N/A   Clear
2:57 PM 57.9 °F - 15.1 °F 19% 30.06 in 10.0 mi West 10.4 mph 18.4 mph N/A   Clear
3:57 PM 57.0 °F - 15.1 °F 19% 30.03 in 10.0 mi NW 8.1 mph - N/A   Clear
4:57 PM 55.0 °F - 19.9 °F 25% 30.07 in 10.0 mi WNW 6.9 mph - N/A   Clear
5:57 PM 51.1 °F - 24.1 °F 35% 30.11 in 10.0 mi Calm Calm - N/A   Clear
6:57 PM 43.0 °F - 24.1 °F 47% 30.15 in 10.0 mi Calm Calm - N/A   Clear
7:57 PM 39.0 °F 34.8 °F 25.0 °F 57% 30.19 in 10.0 mi West 5.8 mph - N/A   Clear
8:57 PM 37.9 °F - 25.0 °F 60% 30.14 in 10.0 mi Calm Calm - N/A   Clear
9:57 PM 43.0 °F 39.5 °F 21.9 °F 43% 30.09 in 10.0 mi Variable 5.8 mph - N/A   Clear
10:57 PM 41.0 °F - 21.9 °F 47% 30.07 in 10.0 mi Calm Calm - N/A   Clear
11:57 PM 39.0 °F 35.7 °F 21.9 °F 50% 30.07 in 10.0 mi West 4.6 mph - N/A   Clear